This is the latest recevied weather packets stored in our database for station/object KA1JKB. If no packets are shown the sender has not sent any weather packets the latest 10 day(s).
| Time | Temp. | Humidity | Pressure | Rain* | Wind** | Luminosity | Snow |
|---|---|---|---|---|---|---|---|
| 1777579292 | 11.11° C | 59% | 1011.5 hPa | 0 mm | - | 714 W/m² | - |
| 1777578988 | 11.67° C | 57% | 1011.4 hPa | 0 mm | - | 232 W/m² | - |
| 1777578683 | 11.11° C | 62% | 1011.6 hPa | 0 mm | - | 229 W/m² | - |
| 1777578382 | 11.11° C | 55% | 1011.6 hPa | 0 mm | - | 237 W/m² | - |
| 1777578078 | 12.78° C | 55% | 1011.7 hPa | 0 mm | - | 354 W/m² | - |
| 1777577774 | 11.67° C | 57% | 1011.6 hPa | 0 mm | - | 837 W/m² | - |
| 1777577470 | 12.22° C | 57% | 1011.6 hPa | 0 mm | - | 350 W/m² | - |
| 1777577168 | 12.22° C | 56% | 1011.6 hPa | 0 mm | - | 878 W/m² | - |
| 1777576864 | 11.67° C | 56% | 1011.7 hPa | 0 mm | - | 801 W/m² | - |
| 1777576562 | 11.67° C | 57% | 1011.7 hPa | 0 mm | - | 303 W/m² | - |
| 1777576259 | 11.11° C | 61% | 1011.7 hPa | 0 mm | - | 379 W/m² | - |
| 1777575955 | 11.67° C | 59% | 1011.9 hPa | 0 mm | - | 217 W/m² | - |
| 1777575651 | 10.56° C | 60% | 1011.9 hPa | 0 mm | - | 201 W/m² | - |
| 1777575347 | 11.11° C | 57% | 1011.9 hPa | 0 mm | - | 257 W/m² | - |
| 1777575044 | 11.11° C | 58% | 1012 hPa | 0 mm | - | 239 W/m² | - |
| 1777574740 | 12.22° C | 58% | 1012 hPa | 0 mm | - | 230 W/m² | - |
| 1777574438 | 11.67° C | 56% | 1012 hPa | 0 mm | - | 841 W/m² | - |
| 1777574133 | 11.67° C | 59% | 1012 hPa | 0 mm | - | 855 W/m² | - |
| 1777573829 | 11.67° C | 61% | 1012.2 hPa | 0 mm | - | 276 W/m² | - |
| 1777573524 | 11.11° C | 60% | 1011.8 hPa | 0 mm | - | 809 W/m² | - |
| 1777573220 | 11.11° C | 60% | 1012.2 hPa | 0 mm | - | 764 W/m² | - |
| 1777572917 | 10.56° C | 61% | 1012 hPa | 0 mm | - | 806 W/m² | - |
| 1777572613 | 11.11° C | 63% | 1012.2 hPa | 0 mm | - | 803 W/m² | - |
| 1777572312 | 11.11° C | 64% | 1012 hPa | 0 mm | - | 254 W/m² | - |
| 1777572009 | 10.56° C | 70% | 1012.2 hPa | 0 mm | - | 813 W/m² | - |
* Rain latest hour (hover to see other rain measurements)
** Current wind speed in m/s (hover to see current wind gust speed)